Starlink 11417

operational
NORAD ID: 62983 Int'l Des: 2025-031 Owner: SPXS Country: US Constellation: starlink
LEOCIRCULAR

Über Starlink 11417

Beschreibung wird geladen...

Live-Position

3D-Globus wird geladen...

Nächste Überflüge

Höhenverlauf

Altitude vs Time

uPlot chart will show altitude changes over time

Zweizeiliger Elementsatz

1 62983U 25031C 25258.23672463 .00455331 00000-0 33302-2 0 9998
2 62983 42.9959 339.4443 0003337 292.2062 67.8451 15.71061507 35144
Epoch: 15. Sept. 2025 • Age: 16 hours

Aktueller Status

Höhe 355.5 km
Geschwindigkeit 7.70 km/s
Subsatellitenpunkt 21.32°N, 172.31°E
Startdatum 11. Feb. 2025
Alter 0.5 years
Typ internet

Technische Details

Klassifizierung Payload
Masse 960.00 kg
Trockenmasse 910.00 kg
Gesamtmasse 960.00 kg
Länge 0.30 m
Durchmesser 4.10 m
Spannweite 29.00 m
Form Box + pan
Hersteller SPXS
Bus-Typ Starlink V2MD
Phasenstatus In Orbit
Besitzer/Staat SPXS/US

Große Konstellationen

Loading constellations...